Year,Month,Day,Hour,Minute,Value (Times are PST for temperature in C)
2011,08,20,00,00,19.00
2011,08,20,00,01,18.80
2011,08,20,00,02,18.70
2011,08,20,00,03,18.50
2011,08,20,00,04,18.40
2011,08,20,00,05,18.30
2011,08,20,00,06,18.10
2011,08,20,00,07,18.00
2011,08,20,00,08,17.90
2011,08,20,00,09,17.90
2011,08,20,00,10,17.80
2011,08,20,00,11,17.70
2011,08,20,00,12,17.60
2011,08,20,00,13,17.60
2011,08,20,00,14,17.50
2011,08,20,00,15,17.40
2011,08,20,00,16,17.40
2011,08,20,00,17,17.30
2011,08,20,00,18,17.30
2011,08,20,00,19,17.30
2011,08,20,00,20,17.30
2011,08,20,00,21,17.30
2011,08,20,00,22,17.30
2011,08,20,00,23,17.30
2011,08,20,00,24,17.30
2011,08,20,00,25,17.40
2011,08,20,00,26,17.40
2011,08,20,00,27,17.40
2011,08,20,00,28,17.40
2011,08,20,00,29,17.50
2011,08,20,00,30,17.50
2011,08,20,00,31,17.50
2011,08,20,00,32,17.50
2011,08,20,00,33,17.60
2011,08,20,00,34,17.60
2011,08,20,00,35,17.60
2011,08,20,00,36,17.60
2011,08,20,00,37,17.60
2011,08,20,00,38,17.60
2011,08,20,00,39,17.60
2011,08,20,00,40,17.60
2011,08,20,00,41,17.60
2011,08,20,00,42,17.50
2011,08,20,00,43,17.50
2011,08,20,00,44,17.40
2011,08,20,00,45,17.40
2011,08,20,00,46,17.40
2011,08,20,00,47,17.40
2011,08,20,00,48,17.40
2011,08,20,00,49,17.40
2011,08,20,00,50,17.30
2011,08,20,00,51,17.20
2011,08,20,00,52,17.20
2011,08,20,00,53,17.20
2011,08,20,00,54,17.20
2011,08,20,00,55,17.10
2011,08,20,00,56,17.00
2011,08,20,00,57,16.90
2011,08,20,00,58,16.80
2011,08,20,00,59,16.80
2011,08,20,01,00,16.70
2011,08,20,01,01,16.70
2011,08,20,01,02,16.70
2011,08,20,01,03,16.60
2011,08,20,01,04,16.60
2011,08,20,01,05,16.50
2011,08,20,01,06,16.40
2011,08,20,01,07,16.30
2011,08,20,01,08,16.30
2011,08,20,01,09,16.20
2011,08,20,01,10,16.20
2011,08,20,01,11,16.20
2011,08,20,01,12,16.20
2011,08,20,01,13,16.20
2011,08,20,01,14,16.20
2011,08,20,01,15,16.20
2011,08,20,01,16,16.20
2011,08,20,01,17,16.20
2011,08,20,01,18,16.30
2011,08,20,01,19,16.30
2011,08,20,01,20,16.40
2011,08,20,01,21,16.40
2011,08,20,01,22,16.40
2011,08,20,01,23,16.40
2011,08,20,01,24,16.40
2011,08,20,01,25,16.50
2011,08,20,01,26,16.50
2011,08,20,01,27,16.50
2011,08,20,01,28,16.50
2011,08,20,01,29,16.50
2011,08,20,01,30,16.50
2011,08,20,01,31,16.40
2011,08,20,01,32,16.40
2011,08,20,01,33,16.30
2011,08,20,01,34,16.20
2011,08,20,01,35,16.20
2011,08,20,01,36,16.10
2011,08,20,01,37,16.10
2011,08,20,01,38,16.10
2011,08,20,01,39,16.10
2011,08,20,01,40,16.20
2011,08,20,01,41,16.20
2011,08,20,01,42,16.20
2011,08,20,01,43,16.20
2011,08,20,01,44,16.20
2011,08,20,01,45,16.20
2011,08,20,01,46,16.20
2011,08,20,01,47,16.30
2011,08,20,01,48,16.30
2011,08,20,01,49,16.30
2011,08,20,01,50,16.30
2011,08,20,01,51,16.30
2011,08,20,01,52,16.30
2011,08,20,01,53,16.20
2011,08,20,01,54,16.20
2011,08,20,01,55,16.20
2011,08,20,01,56,16.10
2011,08,20,01,57,16.10
2011,08,20,01,58,16.00
2011,08,20,01,59,16.00
2011,08,20,02,00,15.90
2011,08,20,02,01,15.80
2011,08,20,02,02,15.80
2011,08,20,02,03,15.70
2011,08,20,02,04,15.70
2011,08,20,02,05,15.60
2011,08,20,02,06,15.60
2011,08,20,02,07,15.50
2011,08,20,02,08,15.50
2011,08,20,02,09,15.40
2011,08,20,02,10,15.40
2011,08,20,02,11,15.30
2011,08,20,02,12,15.30
2011,08,20,02,13,15.30
2011,08,20,02,14,15.40
2011,08,20,02,15,15.60
2011,08,20,02,16,15.70
2011,08,20,02,17,15.90
2011,08,20,02,18,16.00
2011,08,20,02,19,16.10
2011,08,20,02,20,16.20
2011,08,20,02,21,16.30
2011,08,20,02,22,16.40
2011,08,20,02,23,16.50
2011,08,20,02,24,16.50
2011,08,20,02,25,16.60
2011,08,20,02,26,16.70
2011,08,20,02,27,16.70
2011,08,20,02,28,16.80
2011,08,20,02,29,16.80
2011,08,20,02,30,16.80
2011,08,20,02,31,16.80
2011,08,20,02,32,16.80
2011,08,20,02,33,16.90
2011,08,20,02,34,16.80
2011,08,20,02,35,16.80
2011,08,20,02,36,16.80
2011,08,20,02,37,16.80
2011,08,20,02,38,16.80
2011,08,20,02,39,16.80
2011,08,20,02,40,16.80
2011,08,20,02,41,16.80
2011,08,20,02,42,16.70
2011,08,20,02,43,16.70
2011,08,20,02,44,16.50
2011,08,20,02,45,16.40
2011,08,20,02,46,16.30
2011,08,20,02,47,16.20
2011,08,20,02,48,16.10
2011,08,20,02,49,16.00
2011,08,20,02,50,15.90
2011,08,20,02,51,15.80
2011,08,20,02,52,15.70
2011,08,20,02,53,15.70
2011,08,20,02,54,15.60
2011,08,20,02,55,15.60
2011,08,20,02,56,15.60
2011,08,20,02,57,15.50
2011,08,20,02,58,15.50
2011,08,20,02,59,15.40
2011,08,20,03,00,15.40
2011,08,20,03,01,15.40
2011,08,20,03,02,15.40
2011,08,20,03,03,15.50
2011,08,20,03,04,15.60
2011,08,20,03,05,15.70
2011,08,20,03,06,15.80
2011,08,20,03,07,15.80
2011,08,20,03,08,15.90
2011,08,20,03,09,16.00
2011,08,20,03,10,16.00
2011,08,20,03,11,16.10
2011,08,20,03,12,16.10
2011,08,20,03,13,16.10
2011,08,20,03,14,16.10
2011,08,20,03,15,16.10
2011,08,20,03,16,16.20
2011,08,20,03,17,16.20
2011,08,20,03,18,16.20
2011,08,20,03,19,16.30
2011,08,20,03,20,16.40
2011,08,20,03,21,16.50
2011,08,20,03,22,16.60
2011,08,20,03,23,16.70
2011,08,20,03,24,16.80
2011,08,20,03,25,16.80
2011,08,20,03,26,16.90
2011,08,20,03,27,17.00
2011,08,20,03,28,17.10
2011,08,20,03,29,17.20
2011,08,20,03,30,17.20
2011,08,20,03,31,17.30
2011,08,20,03,32,17.30
2011,08,20,03,33,17.30
2011,08,20,03,34,17.30
2011,08,20,03,35,17.30
2011,08,20,03,36,17.30
2011,08,20,03,37,17.30
2011,08,20,03,38,17.30
2011,08,20,03,39,17.30
2011,08,20,03,40,17.30
2011,08,20,03,41,17.30
2011,08,20,03,42,17.30
2011,08,20,03,43,17.30
2011,08,20,03,44,17.40
2011,08,20,03,45,17.30
2011,08,20,03,46,17.30
2011,08,20,03,47,17.30
2011,08,20,03,48,17.30
2011,08,20,03,49,17.30
2011,08,20,03,50,17.40
2011,08,20,03,51,17.40
2011,08,20,03,52,17.40
2011,08,20,03,53,17.40
2011,08,20,03,54,17.40
2011,08,20,03,55,17.40
2011,08,20,03,56,17.40
2011,08,20,03,57,17.40
2011,08,20,03,58,17.40
2011,08,20,03,59,17.50
2011,08,20,04,00,17.50
2011,08,20,04,01,17.50
2011,08,20,04,02,17.50
2011,08,20,04,03,17.40
2011,08,20,04,04,17.40
2011,08,20,04,05,17.40
2011,08,20,04,06,17.30
2011,08,20,04,07,17.30
2011,08,20,04,08,17.30
2011,08,20,04,09,17.30
2011,08,20,04,10,17.30
2011,08,20,04,11,17.30
2011,08,20,04,12,17.30
2011,08,20,04,13,17.30
2011,08,20,04,14,17.30
2011,08,20,04,15,17.20
2011,08,20,04,16,17.20
2011,08,20,04,17,17.10
2011,08,20,04,18,17.10
2011,08,20,04,19,17.00
2011,08,20,04,20,17.00
2011,08,20,04,21,16.90
2011,08,20,04,22,16.90
2011,08,20,04,23,16.80
2011,08,20,04,24,16.80
2011,08,20,04,25,16.80
2011,08,20,04,26,16.80
2011,08,20,04,27,16.80
2011,08,20,04,28,16.80
2011,08,20,04,29,16.80
2011,08,20,04,30,16.80
2011,08,20,04,31,16.80
2011,08,20,04,32,16.80
2011,08,20,04,33,16.80
2011,08,20,04,34,16.80
2011,08,20,04,35,16.80
2011,08,20,04,36,16.80
2011,08,20,04,37,16.70
2011,08,20,04,38,16.70
2011,08,20,04,39,16.70
2011,08,20,04,40,16.70
2011,08,20,04,41,16.80
2011,08,20,04,42,16.80
2011,08,20,04,43,16.80
2011,08,20,04,44,16.80
2011,08,20,04,45,16.80
2011,08,20,04,46,16.80
2011,08,20,04,47,16.80
2011,08,20,04,48,16.80
2011,08,20,04,49,16.70
2011,08,20,04,50,16.70
2011,08,20,04,51,16.70
2011,08,20,04,52,16.60
2011,08,20,04,53,16.50
2011,08,20,04,54,16.50
2011,08,20,04,55,16.50
2011,08,20,04,56,16.40
2011,08,20,04,57,16.40
2011,08,20,04,58,16.40
2011,08,20,04,59,16.50
2011,08,20,05,00,16.50
2011,08,20,05,01,16.50
2011,08,20,05,02,16.50
2011,08,20,05,03,16.50
2011,08,20,05,04,16.50
2011,08,20,05,05,16.50
2011,08,20,05,06,16.40
2011,08,20,05,07,16.30
2011,08,20,05,08,16.20
2011,08,20,05,09,16.10
2011,08,20,05,10,16.00
2011,08,20,05,11,15.90
2011,08,20,05,12,15.80
2011,08,20,05,13,15.70
2011,08,20,05,14,15.70
2011,08,20,05,15,15.60
2011,08,20,05,16,15.60
2011,08,20,05,17,15.50
2011,08,20,05,18,15.40
2011,08,20,05,19,15.30
2011,08,20,05,20,15.20
2011,08,20,05,21,15.10
2011,08,20,05,22,15.00
2011,08,20,05,23,15.00
2011,08,20,05,24,15.00
2011,08,20,05,25,15.00
2011,08,20,05,26,15.00
2011,08,20,05,27,15.00
2011,08,20,05,28,15.10
2011,08,20,05,29,15.10
2011,08,20,05,30,15.10
2011,08,20,05,31,15.10
2011,08,20,05,32,15.20
2011,08,20,05,33,15.20
2011,08,20,05,34,15.20
2011,08,20,05,35,15.20
2011,08,20,05,36,15.30
2011,08,20,05,37,15.30
2011,08,20,05,38,15.30
2011,08,20,05,39,15.30
2011,08,20,05,40,15.30
2011,08,20,05,41,15.20
2011,08,20,05,42,15.20
2011,08,20,05,43,15.20
2011,08,20,05,44,15.10
2011,08,20,05,45,15.10
2011,08,20,05,46,15.00
2011,08,20,05,47,15.00
2011,08,20,05,48,14.90
2011,08,20,05,49,14.90
2011,08,20,05,50,14.80
2011,08,20,05,51,14.80
2011,08,20,05,52,14.80
2011,08,20,05,53,14.70
2011,08,20,05,54,14.70
2011,08,20,05,55,14.60
2011,08,20,05,56,14.60
2011,08,20,05,57,14.50
2011,08,20,05,58,14.50
2011,08,20,05,59,14.50
2011,08,20,06,00,14.50
2011,08,20,06,01,14.50
2011,08,20,06,02,14.40
2011,08,20,06,03,14.40
2011,08,20,06,04,14.40
2011,08,20,06,05,14.30
2011,08,20,06,06,14.30
2011,08,20,06,07,14.20
2011,08,20,06,08,14.20
2011,08,20,06,09,14.20
2011,08,20,06,10,14.20
2011,08,20,06,11,14.20
2011,08,20,06,12,14.30
2011,08,20,06,13,14.30
2011,08,20,06,14,14.40
2011,08,20,06,15,14.40
2011,08,20,06,16,14.50
2011,08,20,06,17,14.50
2011,08,20,06,18,14.60
2011,08,20,06,19,14.60
2011,08,20,06,20,14.60
2011,08,20,06,21,14.60
2011,08,20,06,22,14.70
2011,08,20,06,23,14.70
2011,08,20,06,24,14.70
2011,08,20,06,25,14.80
2011,08,20,06,26,14.80
2011,08,20,06,27,14.80
2011,08,20,06,28,14.90
2011,08,20,06,29,14.90
2011,08,20,06,30,14.90
2011,08,20,06,31,14.80
2011,08,20,06,32,14.80
2011,08,20,06,33,14.70
2011,08,20,06,34,14.70
2011,08,20,06,35,14.70
2011,08,20,06,36,14.70
2011,08,20,06,37,14.70
2011,08,20,06,38,14.70
2011,08,20,06,39,14.70
2011,08,20,06,40,14.70
2011,08,20,06,41,14.60
2011,08,20,06,42,14.60
2011,08,20,06,43,14.60
2011,08,20,06,44,14.60
2011,08,20,06,45,14.70
2011,08,20,06,46,14.70
2011,08,20,06,47,14.80
2011,08,20,06,48,14.90
2011,08,20,06,49,14.90
2011,08,20,06,50,14.90
2011,08,20,06,51,15.00
2011,08,20,06,52,15.00
2011,08,20,06,53,15.10
2011,08,20,06,54,15.10
2011,08,20,06,55,15.10
2011,08,20,06,56,15.10
2011,08,20,06,57,15.10
2011,08,20,06,58,15.10
2011,08,20,06,59,15.10
2011,08,20,07,00,15.20
2011,08,20,07,01,15.20
2011,08,20,07,02,15.30
2011,08,20,07,03,15.30
2011,08,20,07,04,15.40
2011,08,20,07,05,15.50
2011,08,20,07,06,15.60
2011,08,20,07,07,15.70
2011,08,20,07,08,15.70
2011,08,20,07,09,15.80
2011,08,20,07,10,15.90
2011,08,20,07,11,16.00
2011,08,20,07,12,16.10
2011,08,20,07,13,16.20
2011,08,20,07,14,16.30
2011,08,20,07,15,16.40
2011,08,20,07,16,16.50
2011,08,20,07,17,16.60
2011,08,20,07,18,16.70
2011,08,20,07,19,16.70
2011,08,20,07,20,16.80
2011,08,20,07,21,16.90
2011,08,20,07,22,17.00
2011,08,20,07,23,17.10
2011,08,20,07,24,17.10
2011,08,20,07,25,17.20
2011,08,20,07,26,17.20
2011,08,20,07,27,17.30
2011,08,20,07,28,17.30
2011,08,20,07,29,17.40
2011,08,20,07,30,17.40
2011,08,20,07,31,17.50
2011,08,20,07,32,17.60
2011,08,20,07,33,17.60
2011,08,20,07,34,17.70
2011,08,20,07,35,17.70
2011,08,20,07,36,17.80
2011,08,20,07,37,17.80
2011,08,20,07,38,17.90
2011,08,20,07,39,17.90
2011,08,20,07,40,18.00
2011,08,20,07,41,18.00
2011,08,20,07,42,18.10
2011,08,20,07,43,18.10
2011,08,20,07,44,18.20
2011,08,20,07,45,18.20
2011,08,20,07,46,18.30
2011,08,20,07,47,18.40
2011,08,20,07,48,18.40
2011,08,20,07,49,18.50
2011,08,20,07,50,18.60
2011,08,20,07,51,18.60
2011,08,20,07,52,18.60
2011,08,20,07,53,18.70
2011,08,20,07,54,18.70
2011,08,20,07,55,18.70
2011,08,20,07,56,18.70
2011,08,20,07,57,18.80
2011,08,20,07,58,18.80
2011,08,20,07,59,18.80
2011,08,20,08,00,18.80
2011,08,20,08,01,18.80
2011,08,20,08,02,18.80
2011,08,20,08,03,18.90
2011,08,20,08,04,18.90
2011,08,20,08,05,18.90
2011,08,20,08,06,18.90
2011,08,20,08,07,18.90
2011,08,20,08,08,19.00
2011,08,20,08,09,19.00
2011,08,20,08,10,19.10
2011,08,20,08,11,19.10
2011,08,20,08,12,19.20
2011,08,20,08,13,19.20
2011,08,20,08,14,19.20
2011,08,20,08,15,19.20
2011,08,20,08,16,19.30
2011,08,20,08,17,19.30
2011,08,20,08,18,19.30
2011,08,20,08,19,19.40
2011,08,20,08,20,19.40
2011,08,20,08,21,19.40
2011,08,20,08,22,19.40
2011,08,20,08,23,19.50
2011,08,20,08,24,19.50
2011,08,20,08,25,19.50
2011,08,20,08,26,19.50
2011,08,20,08,27,19.60
2011,08,20,08,28,19.60
2011,08,20,08,29,19.60
2011,08,20,08,30,19.60
2011,08,20,08,31,19.70
2011,08,20,08,32,19.70
2011,08,20,08,33,19.70
2011,08,20,08,34,19.70
2011,08,20,08,35,19.70
2011,08,20,08,36,19.70
2011,08,20,08,37,19.70
2011,08,20,08,38,19.70
2011,08,20,08,39,19.70
2011,08,20,08,40,19.70
2011,08,20,08,41,19.70
2011,08,20,08,42,19.70
2011,08,20,08,43,19.70
2011,08,20,08,44,19.70
2011,08,20,08,45,19.70
2011,08,20,08,46,19.70
2011,08,20,08,47,19.70
2011,08,20,08,48,19.70
2011,08,20,08,49,19.70
2011,08,20,08,50,19.80
2011,08,20,08,51,19.80
2011,08,20,08,52,19.80
2011,08,20,08,53,19.80
2011,08,20,08,54,19.80
2011,08,20,08,55,19.80
2011,08,20,08,56,19.80
2011,08,20,08,57,19.80
2011,08,20,08,58,19.80
2011,08,20,08,59,19.80
2011,08,20,09,00,19.80
2011,08,20,09,01,19.80
2011,08,20,09,02,19.80
2011,08,20,09,03,19.90
2011,08,20,09,04,19.90
2011,08,20,09,05,20.00
2011,08,20,09,06,20.10
2011,08,20,09,07,20.10
2011,08,20,09,08,20.10
2011,08,20,09,09,20.10
2011,08,20,09,10,20.20
2011,08,20,09,11,20.20
2011,08,20,09,12,20.30
2011,08,20,09,13,20.30
2011,08,20,09,14,20.30
2011,08,20,09,15,20.40
2011,08,20,09,16,20.40
2011,08,20,09,17,20.50
2011,08,20,09,18,20.50
2011,08,20,09,19,20.60
2011,08,20,09,20,20.60
2011,08,20,09,21,20.70
2011,08,20,09,22,20.70
2011,08,20,09,23,20.80
2011,08,20,09,24,20.80
2011,08,20,09,25,20.90
2011,08,20,09,26,20.90
2011,08,20,09,27,20.90
2011,08,20,09,28,20.90
2011,08,20,09,29,20.90
2011,08,20,09,30,21.00
2011,08,20,09,31,21.00
2011,08,20,09,32,21.10
2011,08,20,09,33,21.10
2011,08,20,09,34,21.20
2011,08,20,09,35,21.20
2011,08,20,09,36,21.20
2011,08,20,09,37,21.30
2011,08,20,09,38,21.30
2011,08,20,09,39,21.30
2011,08,20,09,40,21.30
2011,08,20,09,41,21.30
2011,08,20,09,42,21.30
2011,08,20,09,43,21.30
2011,08,20,09,44,21.30
2011,08,20,09,45,21.30
2011,08,20,09,46,21.30
2011,08,20,09,47,21.30
2011,08,20,09,48,21.30
2011,08,20,09,49,21.40
2011,08,20,09,50,21.50
2011,08,20,09,51,21.50
2011,08,20,09,52,21.60
2011,08,20,09,53,21.70
2011,08,20,09,54,21.70
2011,08,20,09,55,21.60
2011,08,20,09,56,21.60
2011,08,20,09,57,21.70
2011,08,20,09,58,21.60
2011,08,20,09,59,21.60
2011,08,20,10,00,21.60
2011,08,20,10,01,21.60
2011,08,20,10,02,21.60
2011,08,20,10,03,21.50
2011,08,20,10,04,21.50
2011,08,20,10,05,21.40
2011,08,20,10,06,21.40
2011,08,20,10,07,21.40
2011,08,20,10,08,21.40
2011,08,20,10,09,21.40
2011,08,20,10,10,21.40
2011,08,20,10,11,21.50
2011,08,20,10,12,21.50
2011,08,20,10,13,21.50
2011,08,20,10,14,21.50
2011,08,20,10,15,21.50
2011,08,20,10,16,21.60
2011,08,20,10,17,21.60
2011,08,20,10,18,21.70
2011,08,20,10,19,21.70
2011,08,20,10,20,21.80
2011,08,20,10,21,21.90
2011,08,20,10,22,21.90
2011,08,20,10,23,21.90
2011,08,20,10,24,21.90
2011,08,20,10,25,21.90
2011,08,20,10,26,21.90
2011,08,20,10,27,22.00
2011,08,20,10,28,22.00
2011,08,20,10,29,22.00
2011,08,20,10,30,22.10
2011,08,20,10,31,22.20
2011,08,20,10,32,22.20
2011,08,20,10,33,22.20
2011,08,20,10,34,22.30
2011,08,20,10,35,22.40
2011,08,20,10,36,22.40
2011,08,20,10,37,22.50
2011,08,20,10,38,22.60
2011,08,20,10,39,22.60
2011,08,20,10,40,22.70
2011,08,20,10,41,22.70
2011,08,20,10,42,22.70
2011,08,20,10,43,22.70
2011,08,20,10,44,22.80
2011,08,20,10,45,22.80
2011,08,20,10,46,22.80
2011,08,20,10,47,22.80
2011,08,20,10,48,22.80
2011,08,20,10,49,22.90
2011,08,20,10,50,22.90
2011,08,20,10,51,22.90
2011,08,20,10,52,22.80
2011,08,20,10,53,22.80
2011,08,20,10,54,22.80
2011,08,20,10,55,22.80
2011,08,20,10,56,22.70
2011,08,20,10,57,22.70
2011,08,20,10,58,22.80
2011,08,20,10,59,22.80
2011,08,20,11,00,22.80
2011,08,20,11,01,22.80
2011,08,20,11,02,22.90
2011,08,20,11,03,22.80
2011,08,20,11,04,22.80
2011,08,20,11,05,22.80
2011,08,20,11,06,22.80
2011,08,20,11,07,22.80
2011,08,20,11,08,22.80
2011,08,20,11,09,22.90
2011,08,20,11,10,22.90
2011,08,20,11,11,22.90
2011,08,20,11,12,23.00
2011,08,20,11,13,23.10
2011,08,20,11,14,23.10
2011,08,20,11,15,23.10
2011,08,20,11,16,23.20
2011,08,20,11,17,23.20
2011,08,20,11,18,23.20
2011,08,20,11,19,23.30
2011,08,20,11,20,23.30
2011,08,20,11,21,23.40
2011,08,20,11,22,23.50
2011,08,20,11,23,23.70
2011,08,20,11,24,23.80
2011,08,20,11,25,23.90
2011,08,20,11,26,23.90
2011,08,20,11,27,23.90
2011,08,20,11,28,23.90
2011,08,20,11,29,23.90
2011,08,20,11,30,23.90
2011,08,20,11,31,23.90
2011,08,20,11,32,23.90
2011,08,20,11,33,23.90
2011,08,20,11,34,23.90
2011,08,20,11,35,23.90
2011,08,20,11,36,23.90
2011,08,20,11,37,24.00
2011,08,20,11,38,24.10
2011,08,20,11,39,24.20
2011,08,20,11,40,24.30
2011,08,20,11,41,24.30
2011,08,20,11,42,24.30
2011,08,20,11,43,24.40
2011,08,20,11,44,24.40
2011,08,20,11,45,24.40
2011,08,20,11,46,24.40
2011,08,20,11,47,24.40
2011,08,20,11,48,24.40
2011,08,20,11,49,24.20
2011,08,20,11,50,24.10
2011,08,20,11,51,24.00
2011,08,20,11,52,23.90
2011,08,20,11,53,23.90
2011,08,20,11,54,24.00
2011,08,20,11,55,24.10
2011,08,20,11,56,24.00
2011,08,20,11,57,24.00
2011,08,20,11,58,23.80
2011,08,20,11,59,23.70
2011,08,20,12,00,23.60
2011,08,20,12,01,23.50
2011,08,20,12,02,23.50
2011,08,20,12,03,23.50
2011,08,20,12,04,23.60
2011,08,20,12,05,23.70
2011,08,20,12,06,23.70
2011,08,20,12,07,23.80
2011,08,20,12,08,23.80
2011,08,20,12,09,23.90
2011,08,20,12,10,23.90
2011,08,20,12,11,23.90
2011,08,20,12,12,23.80
2011,08,20,12,13,23.80
2011,08,20,12,14,23.70
2011,08,20,12,15,23.70
2011,08,20,12,16,23.60
2011,08,20,12,17,23.50
2011,08,20,12,18,23.50
2011,08,20,12,19,23.50
2011,08,20,12,20,23.40
2011,08,20,12,21,23.40
2011,08,20,12,22,23.40
2011,08,20,12,23,23.40
2011,08,20,12,24,23.40
2011,08,20,12,25,23.40
2011,08,20,12,26,23.40
2011,08,20,12,27,23.40
2011,08,20,12,28,23.40
2011,08,20,12,29,23.50
2011,08,20,12,30,23.60
2011,08,20,12,31,23.70
2011,08,20,12,32,23.80
2011,08,20,12,33,23.80
2011,08,20,12,34,23.90
2011,08,20,12,35,23.90
2011,08,20,12,36,23.90
2011,08,20,12,37,23.80
2011,08,20,12,38,23.80
2011,08,20,12,39,23.80
2011,08,20,12,40,23.80
2011,08,20,12,41,23.80
2011,08,20,12,42,23.80
2011,08,20,12,43,23.70
2011,08,20,12,44,23.60
2011,08,20,12,45,23.60
2011,08,20,12,46,23.50
2011,08,20,12,47,23.40
2011,08,20,12,48,23.30
2011,08,20,12,49,23.20
2011,08,20,12,50,23.10
2011,08,20,12,51,23.10
2011,08,20,12,52,23.00
2011,08,20,12,53,22.90
2011,08,20,12,54,22.80
2011,08,20,12,55,22.80
2011,08,20,12,56,22.80
2011,08,20,12,57,22.70
2011,08,20,12,58,22.70
2011,08,20,12,59,22.60
2011,08,20,13,00,22.60
2011,08,20,13,01,22.70
2011,08,20,13,02,22.70
2011,08,20,13,03,22.80
2011,08,20,13,04,22.80
2011,08,20,13,05,22.90
2011,08,20,13,06,23.00
2011,08,20,13,07,23.10
2011,08,20,13,08,23.20
2011,08,20,13,09,23.20
2011,08,20,13,10,23.30
2011,08,20,13,11,23.30
2011,08,20,13,12,23.40
2011,08,20,13,13,23.40
2011,08,20,13,14,23.30
2011,08,20,13,15,23.30
2011,08,20,13,16,23.20
2011,08,20,13,17,23.30
2011,08,20,13,18,23.30
2011,08,20,13,19,23.30
2011,08,20,13,20,23.30
2011,08,20,13,21,23.30
2011,08,20,13,22,23.40
2011,08,20,13,23,23.40
2011,08,20,13,24,23.50
2011,08,20,13,25,23.60
2011,08,20,13,26,23.70
2011,08,20,13,27,23.70
2011,08,20,13,28,23.80
2011,08,20,13,29,23.80
2011,08,20,13,30,23.80
2011,08,20,13,31,23.80
2011,08,20,13,32,23.80
2011,08,20,13,33,23.80
2011,08,20,13,34,23.80
2011,08,20,13,35,23.80
2011,08,20,13,36,23.80
2011,08,20,13,37,23.80
2011,08,20,13,38,23.70
2011,08,20,13,39,23.70
2011,08,20,13,40,23.70
2011,08,20,13,41,23.70
2011,08,20,13,42,23.80
2011,08,20,13,43,23.80
2011,08,20,13,44,23.80
2011,08,20,13,45,23.70
2011,08,20,13,46,23.70
2011,08,20,13,47,23.70
2011,08,20,13,48,23.60
2011,08,20,13,49,23.70
2011,08,20,13,50,23.80
2011,08,20,13,51,23.80
2011,08,20,13,52,23.80
2011,08,20,13,53,23.80
2011,08,20,13,54,23.80
2011,08,20,13,55,23.80
2011,08,20,13,56,23.80
2011,08,20,13,57,23.80
2011,08,20,13,58,23.80
2011,08,20,13,59,23.80
2011,08,20,14,00,23.90
2011,08,20,14,01,23.90
2011,08,20,14,02,23.80
2011,08,20,14,03,23.70
2011,08,20,14,04,23.70
2011,08,20,14,05,23.60
2011,08,20,14,06,23.60
2011,08,20,14,07,23.60
2011,08,20,14,08,23.60
2011,08,20,14,09,23.60
2011,08,20,14,10,23.50
2011,08,20,14,11,23.50
2011,08,20,14,12,23.50
2011,08,20,14,13,23.50
2011,08,20,14,14,23.50
2011,08,20,14,15,23.50
2011,08,20,14,16,23.50
2011,08,20,14,17,23.40
2011,08,20,14,18,23.40
2011,08,20,14,19,23.30
2011,08,20,14,20,23.30
2011,08,20,14,21,23.30
2011,08,20,14,22,23.30
2011,08,20,14,23,23.30
2011,08,20,14,24,23.30
2011,08,20,14,25,23.30
2011,08,20,14,26,23.30
2011,08,20,14,27,23.40
2011,08,20,14,28,23.40
2011,08,20,14,29,23.50
2011,08,20,14,30,23.60
2011,08,20,14,31,23.60
2011,08,20,14,32,23.50
2011,08,20,14,33,23.40
2011,08,20,14,34,23.30
2011,08,20,14,35,23.20
2011,08,20,14,36,23.20
2011,08,20,14,37,23.20
2011,08,20,14,38,23.30
2011,08,20,14,39,23.40
2011,08,20,14,40,23.40
2011,08,20,14,41,23.50
2011,08,20,14,42,23.50
2011,08,20,14,43,23.60
2011,08,20,14,44,23.70
2011,08,20,14,45,23.80
2011,08,20,14,46,23.80
2011,08,20,14,47,23.90
2011,08,20,14,48,24.00
2011,08,20,14,49,24.00
2011,08,20,14,50,24.10
2011,08,20,14,51,24.20
2011,08,20,14,52,24.30
2011,08,20,14,53,24.30
2011,08,20,14,54,24.30
2011,08,20,14,55,24.30
2011,08,20,14,56,24.30
2011,08,20,14,57,24.30
2011,08,20,14,58,24.40
2011,08,20,14,59,24.40
2011,08,20,15,00,24.50
2011,08,20,15,01,24.50
2011,08,20,15,02,24.50
2011,08,20,15,03,24.60
2011,08,20,15,04,24.60
2011,08,20,15,05,24.50
2011,08,20,15,06,24.50
2011,08,20,15,07,24.50
2011,08,20,15,08,24.60
2011,08,20,15,09,24.60
2011,08,20,15,10,24.70
2011,08,20,15,11,24.70
2011,08,20,15,12,24.70
2011,08,20,15,13,24.70
2011,08,20,15,14,24.80
2011,08,20,15,15,24.80
2011,08,20,15,16,24.90
2011,08,20,15,17,25.00
2011,08,20,15,18,25.00
2011,08,20,15,19,25.10
2011,08,20,15,20,25.10
2011,08,20,15,21,25.20
2011,08,20,15,22,25.30
2011,08,20,15,23,25.40
2011,08,20,15,24,25.40
2011,08,20,15,25,25.40
2011,08,20,15,26,25.40
2011,08,20,15,27,25.30
2011,08,20,15,28,25.30
2011,08,20,15,29,25.20
2011,08,20,15,30,25.20
2011,08,20,15,31,25.10
2011,08,20,15,32,25.10
2011,08,20,15,33,25.00
2011,08,20,15,34,25.10
2011,08,20,15,35,25.10
2011,08,20,15,36,25.20
2011,08,20,15,37,25.30
2011,08,20,15,38,25.30
2011,08,20,15,39,25.40
2011,08,20,15,40,25.40
2011,08,20,15,41,25.50
2011,08,20,15,42,25.60
2011,08,20,15,43,25.60
2011,08,20,15,44,25.60
2011,08,20,15,45,25.50
2011,08,20,15,46,25.50
2011,08,20,15,47,25.50
2011,08,20,15,48,25.50
2011,08,20,15,49,25.60
2011,08,20,15,50,25.60
2011,08,20,15,51,25.70
2011,08,20,15,52,25.80
2011,08,20,15,53,25.80
2011,08,20,15,54,25.90
2011,08,20,15,55,25.90
2011,08,20,15,56,26.00
2011,08,20,15,57,26.00
2011,08,20,15,58,26.00
2011,08,20,15,59,26.00
2011,08,20,16,00,26.00
2011,08,20,16,01,26.10
2011,08,20,16,02,26.10
2011,08,20,16,03,26.10
2011,08,20,16,04,26.20
2011,08,20,16,05,26.30
2011,08,20,16,06,26.30
2011,08,20,16,07,26.30
2011,08,20,16,08,26.30
2011,08,20,16,09,26.30
2011,08,20,16,10,26.40
2011,08,20,16,11,26.40
2011,08,20,16,12,26.50
2011,08,20,16,13,26.50
2011,08,20,16,14,26.50
2011,08,20,16,15,26.40
2011,08,20,16,16,26.40
2011,08,20,16,17,26.30
2011,08,20,16,18,26.30
2011,08,20,16,19,26.30
2011,08,20,16,20,26.30
2011,08,20,16,21,26.30
2011,08,20,16,22,26.30
2011,08,20,16,23,26.30
2011,08,20,16,24,26.30
2011,08,20,16,25,26.30
2011,08,20,16,26,26.30
2011,08,20,16,27,26.40
2011,08,20,16,28,26.40
2011,08,20,16,29,26.50
2011,08,20,16,30,26.60
2011,08,20,16,31,26.60
2011,08,20,16,32,26.60
2011,08,20,16,33,26.60
2011,08,20,16,34,26.70
2011,08,20,16,35,26.80
2011,08,20,16,36,26.90
2011,08,20,16,37,26.90
2011,08,20,16,38,26.90
2011,08,20,16,39,26.90
2011,08,20,16,40,26.90
2011,08,20,16,41,26.90
2011,08,20,16,42,26.80
2011,08,20,16,43,26.80
2011,08,20,16,44,26.80
2011,08,20,16,45,26.80
2011,08,20,16,46,26.90
2011,08,20,16,47,26.90
2011,08,20,16,48,26.90
2011,08,20,16,49,26.90
2011,08,20,16,50,26.90
2011,08,20,16,51,26.90
2011,08,20,16,52,26.90
2011,08,20,16,53,26.90
2011,08,20,16,54,27.00
2011,08,20,16,55,27.00
2011,08,20,16,56,27.10
2011,08,20,16,57,27.10
2011,08,20,16,58,27.10
2011,08,20,16,59,27.20
2011,08,20,17,00,27.20
2011,08,20,17,01,27.30
2011,08,20,17,02,27.30
2011,08,20,17,03,27.30
2011,08,20,17,04,27.30
2011,08,20,17,05,27.30
2011,08,20,17,06,27.40
2011,08,20,17,07,27.40
2011,08,20,17,08,27.50
2011,08,20,17,09,27.60
2011,08,20,17,10,27.60
2011,08,20,17,11,27.60
2011,08,20,17,12,27.50
2011,08,20,17,13,27.40
2011,08,20,17,14,27.30
2011,08,20,17,15,27.30
2011,08,20,17,16,27.30
2011,08,20,17,17,27.30
2011,08,20,17,18,27.40
2011,08,20,17,19,27.40